Weather in Rawson

Argentina     43°18′52″S   65°04′40″W
temp.,
°C
wind,
m/s
gust,
m/s
humid.,
%
clouds,
%
prec.,
mm/h
press.,
hPa
HPBL,
m
30 june, thu
thu3000:00+5w814530 0.0 1011364
03:00+4w712590 0.0 1013246
06:00+4w58580 0.0 1013135
09:00+3wnw56640 0.0 1014113
12:00+7w57490 0.0 1014289
15:00+11nw67390 0.0 1011642
18:00+10nnw4539100 0.0 100957
21:00+8n61146100 0.0 1008213
1 july, fri
fri100:00+8nnw61244100 0.0 1006250
03:00+8nnw81457100 0.0 1004478
06:00+6nnw101387100 0.1 1003556
09:00+6nw81384100 0.8 1002967
12:00+6nw4681100 0.3 1002657
15:00+7sw4477100 0.4 1000694
18:00+7s686827 0.0 1001415
21:00+7ssw91071100 0.1 1004819
2 july, sat
sat200:00+5sw7976100 0.0 1006360
03:00+4sw58750 0.0 1007220
06:00+3w57790 0.0 1007148
09:00+3w68750 0.0 1008145
12:00+7wnw57540 0.0 1008349
15:00+11nw57375 0.0 1006579
18:00+9n611394 0.0 1003199
21:00+8nnw7154767 0.0 1002336
3 july, sun
sun300:00+8nnw101847100 0.0 1001513
03:00+9wnw81355100 0.0 1002666
06:00+7wsw13194054 0.0 10041122
09:00+6w1017460 0.0 1007721
12:00+9w1115395 0.0 10081118
15:00+12w10133240 0.0 10071109
18:00+10wnw711414 0.0 1008178
21:00+9wnw71348100 0.0 1009305
4 july, mon
mon400:00+8w10175177 0.0 1009579
03:00+7wnw9165623 0.0 1010453
06:00+6wnw815515 0.0 1010489
09:00+5wnw715535 0.0 1011392
12:00+10w1015391 0.0 1012941
15:00+13wnw12143439 0.0 10091114
18:00+11wnw111641100 0.0 1008494
21:00+10nw91551100 0.0 1007591